User: anonymous   Login
Location: Unspecified
(0.0000°N, 0.0000°E)
Time: 00:42:19
(UTC+00:00)
Language:

GOES 1 - Orbit

View from above orbital plane
View from above orbital plane
View from above satellite
View from above satellite

Ground track
Ground track

The orbit data is extracted from the following two-line orbital elements,

1  8366U 75100A   17206.35394829 -.00000252 +00000-0 +00000-0 0  9995
2  8366 011.9865 318.0615 0004898 268.0292 123.3844 01.00262602152638
Epoch (UTC): 25 July 2017 08:29:41
Eccentricity: 0.0004898
inclination: 11.9865°
perigee height: 35768 km
apogee height: 35809 km
right ascension of ascending node: 318.0615°
argument of perigee: 268.0292°
revolutions per day: 1.00262602
mean anomaly at epoch: 123.3844°
orbit number at epoch: 15263

The dashed part of the orbit path shows where the satellite is in the earth's shadow,  

DLR